Regional Weather Roundup
Issued by NWS

Home | Current Version | Previous Version | Text Only | Print | Product List | Glossary Off
Versions: 1 2 3 4 5 6 7 8 9 10 11 12 13 14 15 16 17 18 19 20 21 22 23 24 25 26 27 28 29 30 31 32 33 34 35 36 37 38 39 40 41 42 43 44 45 46 47 48 49 50

000
ASUS43 KBIS 192102
RWRND

NORTH DAKOTA REGIONAL WEATHER ROUNDUP
NATIONAL WEATHER SERVICE BISMARCK ND
300 PM CST THU JAN 19 2017

NOTE: "FAIR" INDICATES FEW OR NO CLOUDS BELOW 12,000 FEET WITH NO
SIGNIFICANT WEATHER AND/OR OBSTRUCTIONS TO VISIBILITY.


NDZ001>003-009>011-017-192200-
NORTHWEST NORTH DAKOTA

CITY           SKY/WX    TMP DP  RH WIND       PRES   REMARKS
WILLISTON      FAIR      33  22  63 SW6       29.44S
MINOT          FAIR      35  29  78 NE3       29.43S
MINOT AFB      CLOUDY    36  29  75 CALM      29.42S
$$

NDZ018>021-031>035-040>046-192200-
SOUTHWEST NORTH DAKOTA

CITY           SKY/WX    TMP DP  RH WIND       PRES   REMARKS
BISMARCK       FAIR      26  20  77 E5        29.47F
DICKINSON      FAIR      34  25  69 W12       29.40F
GARRISON         N/A     30  23  75 CALM      29.43F
HETTINGER ARPT CLOUDY    32  26  78 W7        29.44F
$$

NDZ004>008-012>016-024-026-027-054-192200-
NORTHEAST NORTH DAKOTA

CITY           SKY/WX    TMP DP  RH WIND       PRES   REMARKS
GRAND FORKS    CLOUDY    30  26  85 S18       29.55S FOG     WCI  18
DEVILS LAKE    FAIR      34  24  67 SW6       29.48S
$$

NDZ022-023-025-028>030-036>039-047>053-192200-
SOUTHEAST NORTH DAKOTA

CITY           SKY/WX    TMP DP  RH WIND       PRES   REMARKS
FARGO          SUNNY     39  34  82 S10       29.58S
JAMESTOWN      FAIR      25  23  92 S9        29.51R WCI  15
$$




USA.gov is the U.S. government's official web portal to all federal, state and local government web resources and services.